Location: Cactus School
(34.5700°N, 118.0931°W)
Time: 11:57:38
(UTC-07:00)

Altair - All Passes

Search period start: 19 April 2024 00:00
Search period end: 29 April 2024 00:00
Orbit: 1502 x 1682 km, 47.2° (Epoch: 18 April)

Date Brightness Start Highest point End Pass type
(mag) Time Alt. Az. Time Alt. Az. Time Alt. Az.
19 Apr - 01:24:55 10° NW 01:34:29 65° NNE 01:43:42 10° ESE visible
19 Apr - 03:30:09 10° WNW 03:38:57 45° SW 03:47:32 10° SSE visible
19 Apr - 16:41:06 10° SSE 16:47:11 18° ESE 16:53:14 10° E daylight
19 Apr - 18:40:48 10° SW 18:50:50 69° SE 19:00:39 10° ENE daylight
19 Apr - 20:46:20 10° W 20:56:05 52° NNW 21:05:33 10° NE visible
19 Apr - 22:53:44 10° WNW 23:02:48 39° N 23:11:33 10° ENE visible
20 Apr - 00:59:39 10° NW 01:09:13 61° NNE 01:18:25 10° ESE visible
20 Apr - 03:04:50 10° WNW 03:13:50 50° SW 03:22:34 10° SSE visible
20 Apr - 16:16:46 10° SSE 16:22:05 16° ESE 16:27:21 10° E daylight
20 Apr - 18:15:39 10° SW 18:25:37 64° SE 18:35:23 10° ENE daylight
20 Apr - 20:20:55 10° W 20:30:45 55° NNW 20:40:19 10° NE visible
20 Apr - 22:28:19 10° WNW 22:37:25 39° N 22:46:12 10° ENE visible
21 Apr - 00:34:22 10° NW 00:43:56 58° NNE 00:53:07 10° ESE visible
21 Apr - 02:39:31 10° WNW 02:48:42 55° SW 02:57:35 10° SSE visible
21 Apr - 04:50:09 10° WSW 04:51:49 11° WSW 04:53:28 10° SW visible
21 Apr - 15:52:41 10° SSE 15:56:59 13° ESE 16:01:14 10° E daylight
21 Apr - 17:50:33 10° SSW 18:00:25 59° SE 18:10:07 10° ENE daylight
21 Apr - 19:55:30 10° WSW 20:05:26 58° NNW 20:15:05 10° NE visible
21 Apr - 22:02:53 10° WNW 22:12:02 39° N 22:20:52 10° ENE visible
22 Apr - 00:09:06 10° NW 00:18:39 55° NNE 00:27:48 10° E visible
22 Apr - 02:14:13 10° WNW 02:23:33 60° SW 02:32:34 10° SSE visible
22 Apr - 04:23:12 10° W 04:26:45 13° WSW 04:30:18 10° SW night (unlit)
22 Apr - 15:29:06 10° SE 15:31:53 11° ESE 15:34:39 10° ESE daylight
22 Apr - 17:25:28 10° SSW 17:35:13 54° SE 17:44:50 10° ENE daylight
22 Apr - 19:30:07 10° WSW 19:40:06 61° NNW 19:49:52 10° NE daylight
22 Apr - 21:37:28 10° WNW 21:46:39 39° N 21:55:31 10° ENE visible
22 Apr - 23:43:48 10° NW 23:53:20 52° NNE 00:02:28 10° E visible
23 Apr - 01:48:56 10° WNW 01:58:23 65° SW 02:07:31 10° SE visible
23 Apr - 03:57:01 10° W 04:01:41 15° WSW 04:06:19 10° SSW night (unlit)
23 Apr - 17:00:26 10° SSW 17:10:02 50° SE 17:19:32 10° ENE daylight
23 Apr - 19:04:44 10° WSW 19:14:48 64° NNW 19:24:38 10° NE daylight
23 Apr - 21:12:02 10° WNW 21:21:15 39° N 21:30:11 10° ENE visible
23 Apr - 23:18:31 10° NW 23:28:01 50° NNE 23:37:08 10° E visible
24 Apr - 01:23:39 10° WNW 01:33:14 71° SW 01:42:26 10° SE visible
24 Apr - 03:31:06 10° W 03:36:37 17° WSW 03:42:05 10° SSW night (unlit)
24 Apr - 16:35:25 10° SSW 16:44:52 45° SE 16:54:12 10° ENE daylight
24 Apr - 18:39:23 10° WSW 18:49:30 68° NNW 18:59:24 10° NE daylight
24 Apr - 20:46:34 10° WNW 20:55:51 40° N 21:04:52 10° ENE visible
24 Apr - 22:53:12 10° NW 23:02:41 48° NNE 23:11:47 10° E visible
25 Apr - 00:58:22 10° WNW 01:08:03 77° SW 01:17:20 10° SE visible
25 Apr - 03:05:21 10° W 03:11:33 20° SW 03:17:40 10° SSW visible
25 Apr - 16:10:27 10° SSW 16:19:41 41° SE 16:28:52 10° ENE daylight
25 Apr - 18:14:02 10° WSW 18:24:12 72° NNW 18:34:11 10° NE daylight
25 Apr - 20:21:07 10° WNW 20:30:27 41° N 20:39:33 10° ENE visible
25 Apr - 22:27:53 10° NW 22:37:20 46° NNE 22:46:26 10° E visible
26 Apr - 00:33:06 10° NW 00:42:51 82° SW 00:52:12 10° SE visible
26 Apr - 02:39:41 10° WNW 02:46:28 22° SW 02:53:08 10° S visible
26 Apr - 15:45:31 10° SSW 15:54:32 38° SE 16:03:29 10° ENE daylight
26 Apr - 17:48:44 10° WSW 17:58:55 76° NNW 18:08:57 10° NE daylight
26 Apr - 19:55:40 10° W 20:05:04 42° N 20:14:14 10° ENE visible
26 Apr - 22:02:33 10° NW 22:11:59 45° NNE 22:21:04 10° E visible
27 Apr - 00:07:50 10° NW 00:17:39 88° SW 00:27:03 10° SE visible
27 Apr - 02:14:07 10° WNW 02:21:24 25° SW 02:28:31 10° S visible
27 Apr - 15:20:38 10° S 15:29:23 34° SE 15:38:05 10° ENE daylight
27 Apr - 17:23:26 10° WSW 17:33:38 81° NW 17:43:43 10° NE daylight
27 Apr - 19:30:12 10° W 19:39:41 43° NNW 19:48:56 10° ENE daylight
27 Apr - 21:37:14 10° WNW 21:46:37 44° NNE 21:55:41 10° E visible
27 Apr - 23:42:34 10° NW 23:52:26 87° NE 00:01:52 10° SE visible
28 Apr - 01:48:36 10° WNW 01:56:18 28° SW 02:03:50 10° S visible
28 Apr - 14:55:49 10° S 15:04:14 31° SE 15:12:39 10° ENE daylight
28 Apr - 16:58:09 10° SW 17:08:22 86° NW 17:18:28 10° NE daylight
28 Apr - 19:04:45 10° W 19:14:18 44° NNW 19:23:38 10° ENE daylight
28 Apr - 21:11:52 10° WNW 21:21:15 42° NNE 21:30:18 10° E visible
28 Apr - 23:17:18 10° NW 23:27:12 82° NE 23:36:40 10° ESE visible
